Regional Weather Roundup
Issued by NWS

Home | Current Version | Previous Version | Text Only | Print | Product List | Glossary Off
Versions: 1 2 3 4 5 6 7 8 9 10 11 12 13 14 15 16 17 18 19 20 21 22 23 24 25 26 27 28

000
ASUS45 KTFX 171910
RWRMT
MONTANA REGIONAL WEATHER ROUNDUP
NATIONAL WEATHER SERVICE GREAT FALLS MT
1200 PM MST SUN DEC 17 2017

NOTE: "FAIR" INDICATES FEW OR NO CLOUDS BELOW 12000 FEET WITH NO
SIGNIFICANT WEATHER AND/OR OBSTRUCTIONS TO VISIBILITY.

MTZ001>007-043-172000-
WEST OF THE DIVIDE

CITY           SKY/WX    TMP DP  RH WIND       PRES   REMARKS
KALISPELL      CLOUDY    30  24  78 S8        30.06F WCI  22
MISSOULA       CLOUDY    24  18  77 CALM      30.12F
BUTTE          CLOUDY    19  15  84 N5        30.01F
MULLAN PASS    FOG       23  19  85 SW8       29.97F VSB 3/4 WCI  14
ANACONDA         N/A     27  14  59 S15G21    30.03F WCI  15
DEER LODGE       N/A     19  14  79 NW3       30.06F
EUREKA           N/A     30  21  69 MISG      30.04S
HAMILTON         N/A     36  16  44 SE8       30.09F WCI  29
LIBBY            N/A     27  21  80 CALM      30.06F
PLAINS           N/A     29  21  71 CALM      30.10
RONAN            N/A     28  25  86 S3        30.07F
$$

MTZ008-052>055-172000-
SOUTHWEST MONTANA

CITY           SKY/WX    TMP DP  RH WIND       PRES   REMARKS
BOZEMAN        CLOUDY    17  15  92 W5        30.04F
DILLON         CLOUDY    25  11  55 SW20      30.03F WCI  11
W YELLOWSTONE  LGT SNOW  16  14  93 SW12      30.09S WCI   3
ENNIS          CLOUDY    25  12  58 S18       30.07F WCI  11
THREE FORKS      N/A     17  14  88 CALM      30.02S
TWIN BRIDGES     N/A     25   9  50 CALM      30.04F
$$

MTZ009-010-012-014-046-048-049-054-172000-
EAST SLOPES AND CENTRAL MONTANA

CITY           SKY/WX    TMP DP  RH WIND       PRES   REMARKS
CUT BANK       FAIR      33  21  61 W33G46    29.71F WCI  18
GREAT FALLS    FAIR      38  17  42 SW32      29.81F WCI  25
MALMSTROM AFB  FAIR      38  19  47 SW37G45   29.83S WCI  24
HELENA         FAIR      34  20  56 W15G23    30.00F WCI  24
BOWMANS CRNR   FAIR      30  17  58 S31G37    29.81  WCI  15
CHOTEAU          N/A     39  16  38 W18G25    29.77S WCI  30
FAIRFIELD      FAIR      44  18  35 SW24      29.78
POWER          FAIR      35  20  54 SW21G29   29.78F WCI  24
RAYNESFORD     FAIR      35  20  54 SW24G35   29.79S WCI  23
ULM            FAIR      36  19  48 SW32G43   29.85F WCI  23
$$

MTZ011-013-016-021-045-047-050-051-172000-
NORTH CENTRAL MONTANA

CITY           SKY/WX    TMP DP  RH WIND       PRES   REMARKS
HAVRE          CLOUDY    37  25  61 SW24G31   29.74F WCI  26
LEWISTOWN      FAIR      35  20  54 SW20      29.79F WCI  24
N BAR RANCH    FAIR      36  14  41 VRB3G12   29.79F
CHINOOK          N/A     39  25  56 W17G24    29.73F WCI  30
DENTON         FAIR      39  19  44 MISG      29.74
GEYSER         FAIR      35  20  54 W32G39    29.76F WCI  22
GRASS RANGE    PTSUNNY   37  19  48 W17       29.75F WCI  27
STANFORD       FAIR      34  23  64 W14       29.77  WCI  25
WINIFRED       FAIR      38  20  47 W16       29.76F WCI  29
$$

MTZ017>020-022>027-061-062-172000-
NORTHEAST MONTANA

CITY           SKY/WX    TMP DP  RH WIND       PRES   REMARKS
GLASGOW        FAIR      35  22  58 S12       29.75F WCI  27
GLENDIVE       FAIR      37  25  61 SW20      29.82F WCI  27
JORDAN           N/A     35  16  45 SW16      29.79F WCI  25
SIDNEY         FAIR      37  25  61 S18G24    29.80F WCI  27
WOLF POINT     FAIR      34  26  72 SW9       29.78F WCI  27
MALTA          PTSUNNY   36  21  55 W8        29.74F WCI  29
PLENTYWOOD       N/A     30  23  74 S13       29.75F WCI  20
POPLAR           N/A     32  23  69 SW14      29.78F WCI  22
SCOBEY           N/A     31  19  61 S14       29.72F WCI  21
$$

MTZ028>42-056>058-172000-
SOUTHCENTRAL AND SOUTHEAST MONTANA

CITY           SKY/WX    TMP DP  RH WIND       PRES   REMARKS
BAKER          FAIR      37  27  67 SW16      29.84F WCI  28
BILLINGS       FAIR      31  25  78 SW16      29.86S WCI  20
LIVINGSTON     PTSUNNY   29  19  66 SW32G49   29.93S HAZE    WCI  13
MILES CITY     FAIR      37  27  67 SW14      29.85F WCI  28
BIG TIMBER     HAZE      28  18  64 W49G56    29.84F VSB 1/2 WCI   9
FORSYTH          N/A     36  21  55 W14G24    29.85F WCI  27
HARLOWTON      FAIR      27  19  72 W40G49    29.84S FOG     WCI   8
ROUNDUP          N/A     34  15  46 SW24      29.76  WCI  21
$$

REGIONAL REPORTS...DAKOTAS

CITY           SKY/WX    TMP DP  RH WIND       PRES   REMARKS
WILLISTON      FAIR      34  26  72 SW10      29.80F WCI  26
MINOT          FAIR      38  23  55 S17       29.83F WCI  28
DICKINSON      FAIR      38  25  59 SW17      29.82F WCI  28
BEACH          FAIR      37  27  65 SW17G24   29.86F WCI  28
CROSBY         FAIR      32  25  74 SW16G23   29.77F WCI  21
TIOGA          FAIR      32  27  80 SW17      29.79F WCI  21
BISMARCK       FAIR      37  25  61 SW7       29.92F WCI  32
GRAND FORKS    FAIR      26  22  84 SW8       29.93F WCI  18
FARGO          FAIR      30  28  92 S9        29.98F WCI  22
BUFFALO SD       N/A     38  27  64 S17       29.79F WCI  28
RAPID CITY     FAIR      40  26  57 S16       29.88F
$$

REGIONAL REPORTS...WYOMING/IDAHO/WASHINGTON

CITY           SKY/WX    TMP DP  RH WIND       PRES   REMARKS
GILLETTE       FAIR      29  21  72 S6        29.83F WCI  23
SHERIDAN       FOG       20  17  88 NW3       29.85F VSB 1/4
BUFFALO WY     FAIR      24  18  77 W3        29.81F
CODY           FAIR      24  14  65 NE8       29.86F WCI  15
YELLOWSTONE LA   N/A     13  10  88 VRB3      30.06R
IDAHO FALLS    CLOUDY    22  21  96 SW12      30.22S FOG     WCI  10
SALMON         CLOUDY    18  12  77 CALM      30.21F
BOISE          FAIR      34  22  61 E3        30.26F
SPOKANE        LGT SNOW  31  30  96 S9        30.11F FOG     WCI  23
$$

REGIONAL REPORTS...ALBERTA

CITY           SKY/WX    TMP DP  RH WIND       PRES   REMARKS
EDMONTON       CLOUDY    41  25  52 W21G33    29.48R
CALGARY        PTSUNNY   43  16  33 W13G20    29.60F
LETHBRIDGE     PTSUNNY   37  21  52 W32G44    29.68F WCI  25
MEDICINE HAT   PTSUNNY   39  27  60 SW14      29.66F WCI  31
$$

REGIONAL REPORTS...SASKATCHEWAN

CITY           SKY/WX    TMP DP  RH WIND       PRES   REMARKS
SWIFT CURRENT  LGT SNOW  28  25  86 W13G21    29.60  WCI  18
REGINA         CLOUDY    30  21  69 SW16      29.63F WCI  19
SASKATOON      PTSUNNY   27  19  74 SW16      29.53F WCI  14
$$




USA.gov is the U.S. government's official web portal to all federal, state and local government web resources and services.